Weather History for Milwaukee Timmerman, WI

Change the Weather History Date:

Saturday, October 26, 2013

  Actual Average Record
Temperature  
Mean Temperature 46 °F -  
Max Temperature 51 °F 56 °F 80 °F (1963)
Min Temperature 41 °F 40 °F 19 °F (1962)
Degree Days  
Heating Degree Days 19    
Moisture  
Dew Point 27 °F    
Average Humidity 49    
Maximum Humidity 65    
Minimum Humidity 37    
Precipitation  
Precipitation 0.00 in - - ()
Sea Level Pressure  
Sea Level Pressure 29.89 in    
Wind  
Wind Speed 17 mph (West)    
Max Wind Speed 26 mph    
Max Gust Speed 38 mph    
Visibility 10 miles    
Events      
Averages and records for this station are not official NWS values.
T = Trace of Precipitation, MM = Missing Value Source: NWS Daily Summary

Daily Weather History Graph

Daily Weather History Graph

Search for Another Location

Airport:

Trip Planner

Search our weather history database for the weather conditions in past years. The results will help you decide how hot, cold, wet, or windy it might be!

Date:

Astronomy

Oct. 26, 2013 Rise Set
Actual Time 7:19 AM CDT 5:51 PM CDT
Civil Twilight 6:50 AM CDT 6:21 PM CDT
Nautical Twilight 6:17 AM CDT 6:54 PM CDT
Astronomical Twilight 5:44 AM CDT 7:27 PM CDT
Moon No Moon Rise 1:36 PM CDT (10/26)
Length of Visible Light 11h 30m
Length of Day
10h 32m
Waning Gibbous, 53% of the Moon is Illuminated
Oct 26
Waning Gibbous
Oct 26
Last Quarter
Nov 3
New
Nov 9
First Quarter
Nov 17
Full

Hourly Weather History & Observations

Time (CDT) Temp. Windchill Dew Point Humidity Pressure Visibility Wind Dir Wind Speed Gust Speed Precip Events Conditions
12:15 AM 46.4 °F 38.7 °F 21.2 °F 37% 29.90 in 10.0 mi SW 20.7 mph 32.2 mph N/A   Overcast
12:35 AM 46.4 °F 38.1 °F 21.2 °F 37% 29.89 in 10.0 mi SW 24.2 mph 32.2 mph N/A   Overcast
12:55 AM 46.4 °F 38.3 °F 21.2 °F 37% 29.88 in 10.0 mi SW 23.0 mph 35.7 mph N/A   Overcast
1:15 AM 46.4 °F 39.0 °F 21.2 °F 37% 29.86 in 10.0 mi SW 19.6 mph 35.7 mph N/A   Overcast
1:35 AM 46.4 °F 38.7 °F 21.2 °F 37% 29.84 in 10.0 mi SW 20.7 mph 34.5 mph N/A   Overcast
1:55 AM 46.4 °F 38.3 °F 23.0 °F 40% 29.82 in 10.0 mi SW 23.0 mph 38.0 mph N/A   Mostly Cloudy
2:15 AM 46.4 °F 38.3 °F 23.0 °F 40% 29.81 in 10.0 mi SW 23.0 mph 33.4 mph N/A   Scattered Clouds
2:35 AM 46.4 °F 37.7 °F 23.0 °F 40% 29.81 in 10.0 mi WSW 26.5 mph 33.4 mph N/A   Mostly Cloudy
2:55 AM 46.4 °F 39.0 °F 23.0 °F 40% 29.80 in 10.0 mi WSW 19.6 mph 29.9 mph N/A   Overcast
3:15 AM 46.4 °F 39.2 °F 23.0 °F 40% 29.80 in 10.0 mi WSW 18.4 mph 28.8 mph N/A   Overcast
3:35 AM 44.6 °F 36.9 °F 23.0 °F 43% 29.79 in 10.0 mi WSW 18.4 mph 28.8 mph N/A   Overcast
3:55 AM 44.6 °F 37.2 °F 23.0 °F 43% 29.78 in 10.0 mi WSW 17.3 mph 26.5 mph N/A   Overcast
4:15 AM 44.6 °F 36.9 °F 24.8 °F 46% 29.78 in 10.0 mi WSW 18.4 mph 25.3 mph N/A   Overcast
4:35 AM 44.6 °F 36.6 °F 24.8 °F 46% 29.78 in 10.0 mi WSW 19.6 mph 29.9 mph N/A   Overcast
4:55 AM 44.6 °F 36.1 °F 24.8 °F 46% 29.78 in 10.0 mi WSW 21.9 mph 28.8 mph N/A   Overcast
5:15 AM 44.6 °F 37.8 °F 26.6 °F 49% 29.78 in 10.0 mi WSW 15.0 mph 32.2 mph N/A   Scattered Clouds
5:35 AM 44.6 °F 37.2 °F 26.6 °F 49% 29.78 in 10.0 mi WSW 17.3 mph 25.3 mph N/A   Clear
5:55 AM 44.6 °F 37.8 °F 26.6 °F 49% 29.77 in 10.0 mi WSW 15.0 mph 21.9 mph N/A   Clear
6:15 AM 44.6 °F 38.1 °F 26.6 °F 49% 29.77 in 10.0 mi WSW 13.8 mph 21.9 mph N/A   Clear
6:35 AM 42.8 °F 35.4 °F 26.6 °F 53% 29.77 in 10.0 mi WSW 15.0 mph 23.0 mph N/A   Clear
6:45 AM 44.6 °F 38.1 °F 26.6 °F 49% 29.78 in 10.0 mi WSW 13.8 mph 23.0 mph N/A   Clear
6:55 AM 42.8 °F 35.4 °F 28.4 °F 57% 29.78 in 10.0 mi WSW 15.0 mph 20.7 mph N/A   Clear
7:45 AM 42.8 °F 35.1 °F 28.4 °F 57% 29.78 in 10.0 mi WSW 16.1 mph 23.0 mph N/A   Scattered Clouds
8:45 AM 44.6 °F 38.8 °F 30.2 °F 57% 29.80 in 10.0 mi West 11.5 mph 19.6 mph N/A   Scattered Clouds
9:45 AM 48.2 °F - 33.8 °F 58% 29.81 in 10.0 mi West 13.8 mph 23.0 mph N/A   Clear
10:45 AM 50.0 °F - 32.0 °F 50% 29.82 in 10.0 mi NW 23.0 mph 26.5 mph N/A   Mostly Cloudy
11:45 AM 48.2 °F - 32.0 °F 54% 29.85 in 10.0 mi WNW 16.1 mph 25.3 mph N/A   Mostly Cloudy
12:45 PM 51.8 °F - 28.4 °F 41% 29.86 in 10.0 mi NW 13.8 mph 24.2 mph N/A   Mostly Cloudy
1:45 PM 51.8 °F - 28.4 °F 41% - - WNW 20.7 mph 34.5 mph N/A   Mostly Cloudy
2:45 PM 50.0 °F - 24.8 °F 37% 29.91 in 10.0 mi NW 20.7 mph 32.2 mph N/A   Overcast
3:45 PM 50.0 °F - 24.8 °F 37% 29.94 in - North - - N/A   Scattered Clouds
4:45 PM 48.2 °F - 26.6 °F 43% 29.96 in 10.0 mi NW 16.1 mph 20.7 mph N/A   Scattered Clouds
5:45 PM 46.4 °F 41.5 °F 26.6 °F 46% 29.99 in 10.0 mi NW 10.4 mph 17.3 mph N/A   Mostly Cloudy
6:45 PM 46.4 °F 40.7 °F 26.6 °F 46% 30.01 in 10.0 mi NW 12.7 mph - N/A   Overcast
7:45 PM 44.6 °F 40.2 °F 28.4 °F 53% 30.03 in 10.0 mi NW 8.1 mph - N/A   Overcast
8:45 PM 44.6 °F 40.2 °F 28.4 °F 53% 30.04 in 10.0 mi NW 8.1 mph - N/A   Overcast
9:15 PM 42.8 °F 39.3 °F 30.2 °F 61% 30.05 in 10.0 mi WNW 5.8 mph - N/A   Overcast
9:35 PM 42.8 °F 39.3 °F 30.2 °F 61% 30.05 in 10.0 mi WNW 5.8 mph - N/A   Overcast
9:55 PM 42.8 °F 41.1 °F 30.2 °F 61% 30.06 in 10.0 mi WNW 3.5 mph - N/A   Overcast
10:15 PM 42.8 °F 41.1 °F 30.2 °F 61% 30.05 in 10.0 mi West 3.5 mph - N/A   Overcast
10:35 PM 42.8 °F - 30.2 °F 61% 30.05 in 10.0 mi Calm Calm - N/A   Overcast
10:55 PM 42.8 °F - 30.2 °F 61% 30.04 in 10.0 mi Calm Calm - N/A   Overcast
11:15 PM 41.0 °F - 30.2 °F 65% 30.04 in 10.0 mi Calm Calm - N/A   Scattered Clouds
11:35 PM 41.0 °F - 30.2 °F 65% 30.04 in 10.0 mi Calm Calm - N/A   Clear
11:55 PM 41.0 °F 39.0 °F 30.2 °F 65% 30.04 in 10.0 mi West 3.5 mph - N/A   Clear